Weather past 2 weeks in Jamestown, Saint Helena

Now
69 °F

Overcast.


Feels Like: 69 °F
Forecast: 72 / 74 °F
Wind: 16 mph from Southeast

Location: Saint Helena Island

Current Time: May 30, 2015 at 11:38:40 AM

Latest Report: May 30, 2015 at 11:00 AM


Visibility: 13 mi

Pressure: 30.10 "Hg

Humidity: 78%

Dew point: 61 °F

Location of JamestownLocation

Historic Weather in Jamestown — Graph

°F

Jamestown temperature yesterday

Maximum temperature yesterday: 68 °F (at 1:00 PM)
Minimum temperature yesterday: 62 °F (at 8:00 AM)
Average temperature yesterday: 65 °F

Past Weeks' High & Low Weather Summary

 TemperatureHumidityPressure
High73 °F (May 17, 2:00 PM)100% (May 19, 5:00 AM)30.16 "Hg (May 19, 5:00 AM)
Low59 °F (May 16, 4:00 AM)52% (May 17, 12:00 PM)29.98 "Hg (May 16, 3:00 PM)
Average66 °F80%30.07 "Hg
* Reported May 15 10:00 AM — May 30 10:00 AM, Jamestown, Weather by CustomWeather, © 2015

Note: Actual official high and low records may vary slightly from our data, if they occured in-between our weather recording intervals... More about our weather records

Advertising

Jamestown weather history for previous 24 hours

 ConditionsComfort  
Time TempWeatherWind HumidityBarometerVisibility
10:00 AM
Sat, May 30
67 °FMild.17 mph79%30.10 "HgN/A
9:00 AM66 °FMild.14 mph77%30.10 "HgN/A
8:00 AM64 °FMild.20 mph78%30.09 "HgN/A
7:00 AM62 °FCool.13 mph95%30.07 "HgN/A
5:00 AM65 °FMild.14 mph84%30.03 "HgN/A
4:00 AM65 °FMild.12 mph78%30.03 "HgN/A
2:00 AM65 °FMild.9 mph76%30.05 "HgN/A
1:00 AM65 °FMild.14 mph81%30.05 "HgN/A
12:00 AM64 °FMild.8 mph85%30.06 "HgN/A
11:00 PM
Fri, May 29
64 °FMild.12 mph79%30.06 "HgN/A
10:00 PM64 °FMild.16 mph88%30.06 "HgN/A
8:00 PM65 °FMild.16 mph80%30.05 "HgN/A
7:00 PM65 °FMild.16 mph77%30.04 "HgN/A
6:00 PM65 °FMild.15 mph82%30.03 "HgN/A
5:00 PM66 °FMild.13 mph76%30.02 "HgN/A
4:00 PM66 °FMild.16 mph81%30.01 "HgN/A
3:00 PM67 °FOvercast.17 mph77%30.01 "Hg40 mi
2:00 PM65 °FLow clouds.14 mph87%30.03 "Hg2 mi
1:00 PM68 °FOvercast.14 mph78%30.05 "Hg9 mi
12:00 PM65 °FFog.17 mph82%30.09 "Hg2 mi
11:00 AM65 °FSprinkles. Low clouds.18 mph90%30.09 "Hg1 mi
Weather by CustomWeather, © 2015

See weather overviewHow to use our weather pages